FW5801 Weather Reports


Display with metric or nautical units.
time (UTC)temp
F
wind
direction
speed
MPH
gust
MPH
rain 1hr
in
rain 24hr
in
rain mn
in
humidity
%
barometer
mb
20260904164602 79 333 3.0 6.0 0.00 0.00 0.00 78 1017.6
20260904164057 79 0 1.0 6.0 0.00 0.00 0.00 79 1017.7
20260904163559 79 0 1.0 8.0 0.00 0.00 0.00 79 1017.6
20260904163105 79 355 3.0 14.0 0.00 0.00 0.00 78 1017.6
20260904162558 79 360 4.0 15.0 0.00 0.00 0.00 76 1017.7
20260904162101 80 323 8.0 15.0 0.00 0.00 0.00 74 1017.8
20260904161605 82 55 8.0 15.0 0.00 0.00 0.00 71 1017.9
20260904161057 83 60 6.0 13.0 0.00 0.00 0.00 70 1017.8
20260904160557 83 341 6.0 13.0 0.00 0.00 0.00 70 1017.8
20260904155600 83 43 3.0 8.0 0.00 0.00 0.00 71 1017.5
20260904155100 83 318 4.0 8.0 0.00 0.00 0.00 71 1017.6
20260904154603 83 348 2.0 4.0 0.00 0.00 0.00 71 1017.5
20260904154100 83 0 1.0 6.0 0.00 0.00 0.00 72 1017.3
20260904153558 83 0 3.0 8.0 0.00 0.00 0.00 73 1017.3
20260904153104 83 41 3.0 8.0 0.00 0.00 0.00 73 1017.5
20260904152557 84 341 4.0 7.0 0.00 0.00 0.00 72 1017.5
20260904152059 84 360 1.0 6.0 0.00 0.00 0.00 72 1017.3
20260904151614 84 345 3.0 6.0 0.00 0.00 0.00 72 1017.3
20260904151058 84 338 2.0 6.0 0.00 0.00 0.00 72 1017.3
20260904150558 84 355 2.0 8.0 0.00 0.00 0.00 72 1017.2
20260904150125 84 283 2.0 9.0 0.00 0.00 0.00 72 1017.1
20260904145558 84 0 2.0 9.0 0.00 0.00 0.00 71 1017.0
20260904145058 84 346 4.0 9.0 0.00 0.00 0.00 71 1017.0
20260904144601 84 334 3.0 9.0 0.00 0.00 0.00 71 1016.9
20260904144057 84 267 5.0 12.0 0.00 0.00 0.00 72 1016.8
20260904143557 84 306 3.0 12.0 0.00 0.00 0.00 72 1016.7
20260904143104 84 248 3.0 12.0 0.00 0.00 0.00 73 1016.9
20260904142558 84 319 3.0 12.0 0.00 0.00 0.00 72 1016.8
20260904142059 85 277 3.0 12.0 0.00 0.00 0.00 72 1017.0
20260904141615 85 287 3.0 11.0 0.00 0.00 0.00 71 1016.8
20260904141059 85 267 5.0 11.0 0.00 0.00 0.00 71 1016.6
20260904140600 85 294 3.0 11.0 0.00 0.00 0.00 71 1016.5
20260904140106 85 53 4.0 11.0 0.00 0.00 0.00 70 1016.5
20260904135558 86 273 4.0 11.0 0.00 0.00 0.00 70 1016.3
20260904135058 85 259 3.0 12.0 0.00 0.00 0.00 72 1016.3
20260904134624 85 277 6.0 12.0 0.00 0.00 0.00 70 1016.5
20260904134057 85 265 3.0 13.0 0.00 0.00 0.00 71 1016.3
20260904133557 85 243 3.0 13.0 0.00 0.00 0.00 71 1016.3
20260904133110 85 290 6.0 13.0 0.00 0.00 0.00 71 1016.3
20260904132558 84 264 5.0 13.0 0.00 0.00 0.00 72 1016.3
20260904132058 84 288 4.0 11.0 0.00 0.00 0.00 73 1016.3
20260904131601 83 268 6.0 11.0 0.00 0.00 0.00 73 1016.5
20260904131101 83 275 3.0 10.0 0.00 0.00 0.00 74 1016.4
20260904130558 83 269 4.0 10.0 0.00 0.00 0.00 75 1016.4
20260904130107 82 287 4.0 9.0 0.00 0.00 0.00 76 1016.5
20260904125601 82 279 3.0 7.0 0.00 0.00 0.00 77 1016.6
20260904125058 81 284 3.0 7.0 0.00 0.00 0.00 78 1016.5
20260904124603 80 277 3.0 6.0 0.00 0.00 0.00 79 1016.6
20260904124057 79 263 2.0 6.0 0.00 0.00 0.00 82 1016.8
20260904123558 78 273 2.0 6.0 0.00 0.00 0.00 84 1016.8
20260904123107 77 286 2.0 6.0 0.00 0.00 0.00 85 1016.9
20260904122601 77 0 0.0 0.0 0.00 0.00 0.00 85 1017.0
20260904122058 76 0 0.0 0.0 0.00 0.00 0.00 87 1017.0
20260904121603 76 0 0.0 0.0 0.00 0.00 0.00 87 1017.0
20260904121057 75 0 0.0 0.0 0.00 0.00 0.00 88 1017.0
20260904120601 75 0 0.0 2.0 0.00 0.00 0.00 87 1017.0
20260904120108 75 0 0.0 4.0 0.00 0.00 0.00 87 1016.8
20260904115557 74 0 1.0 4.0 0.00 0.00 0.00 87 1016.6
20260904115058 74 0 0.0 3.0 0.00 0.00 0.00 87 1016.6
20260904114605 74 253 0.0 3.0 0.00 0.00 0.00 87 1016.4
20260904114058 74 251 0.0 3.0 0.00 0.00 0.00 87 1016.3
20260904113559 74 0 0.0 3.0 0.00 0.00 0.00 87 1016.3
20260904113110 74 249 0.0 2.0 0.00 0.00 0.00 87 1016.4
20260904112559 74 0 0.0 4.0 0.00 0.00 0.00 87 1016.2
20260904112059 74 250 1.0 4.0 0.00 0.00 0.00 87 1016.0
20260904111616 74 232 0.0 3.0 0.00 0.00 0.00 87 1016.1
20260904111058 74 0 0.0 2.0 0.00 0.00 0.00 87 1016.1
20260904110558 74 0 0.0 0.0 0.00 0.00 0.00 87 1016.1
20260904110123 74 0 0.0 0.0 0.00 0.00 0.00 87 1016.0
20260904105601 74 0 0.0 2.0 0.00 0.00 0.00 87 1015.9
20260904105057 74 0 0.0 2.0 0.00 0.00 0.00 87 1015.9
20260904104600 74 0 0.0 2.0 0.00 0.00 0.00 87 1015.8
20260904104100 74 0 0.0 3.0 0.00 0.00 0.00 87 1015.9
20260904103558 74 0 0.0 3.0 0.00 0.00 0.00 87 1015.6
20260904103108 74 0 0.0 3.0 0.00 0.00 0.00 88 1015.6
20260904102558 73 0 0.0 2.0 0.00 0.00 0.00 87 1015.4
20260904102058 73 0 0.0 0.0 0.00 0.00 0.00 87 1015.4
20260904101605 73 0 0.0 2.0 0.00 0.00 0.00 87 1015.3
20260904101057 73 0 0.0 2.0 0.00 0.00 0.00 87 1015.3
20260904100557 73 270 0.0 1.0 0.00 0.00 0.00 87 1015.3
20260904100105 73 0 0.0 1.0 0.00 0.00 0.00 87 1015.3
20260904095600 73 0 0.0 1.0 0.00 0.00 0.00 87 1015.5
20260904095059 73 0 0.0 1.0 0.00 0.00 0.00 87 1015.5
20260904094605 74 0 0.0 2.0 0.00 0.00 0.00 87 1015.5
20260904094058 74 0 0.0 3.0 0.00 0.00 0.00 87 1015.5
20260904093559 74 0 0.0 3.0 0.00 0.00 0.00 87 1015.5
20260904093112 74 0 0.0 0.0 0.00 0.00 0.00 86 1015.4
20260904092558 74 0 0.0 0.0 0.00 0.00 0.00 86 1015.4
20260904092058 74 0 0.0 0.0 0.00 0.00 0.00 86 1015.3
20260904091605 74 0 0.0 0.0 0.00 0.00 0.00 86 1015.3
20260904091058 74 0 0.0 0.0 0.00 0.00 0.00 86 1015.3
20260904090557 74 0 0.0 0.0 0.00 0.00 0.00 86 1015.3
20260904090105 74 0 0.0 0.0 0.00 0.00 0.00 86 1015.5
20260904085558 74 0 0.0 3.0 0.00 0.00 0.00 87 1015.4
20260904085058 74 0 0.0 3.0 0.00 0.00 0.00 87 1015.5
20260904084602 74 242 0.0 3.0 0.00 0.00 0.00 87 1015.5
20260904084058 73 0 0.0 3.0 0.00 0.00 0.00 87 1015.3
20260904083558 73 0 0.0 3.0 0.00 0.00 0.00 87 1015.4
20260904083106 73 0 0.0 0.0 0.00 0.00 0.00 87 1015.5
20260904082558 73 0 0.0 0.0 0.00 0.00 0.00 87 1015.5
20260904082103 73 0 0.0 0.0 0.00 0.00 0.00 87 1015.6
20260904081604 73 0 0.0 0.0 0.00 0.00 0.00 87 1015.6
20260904081058 73 0 0.0 0.0 0.00 0.00 0.00 87 1015.7
20260904080558 73 0 0.0 0.0 0.00 0.00 0.00 87 1015.7
20260904080100 73 0 0.0 0.0 0.00 0.00 0.00 87 1015.8
20260904075558 73 0 0.0 0.0 0.00 0.00 0.00 87 1015.8
20260904075058 73 0 0.0 0.0 0.00 0.00 0.00 87 1015.8
20260904074603 73 0 0.0 0.0 0.00 0.00 0.00 87 1015.8
20260904074058 73 0 0.0 0.0 0.00 0.00 0.00 87 1015.8
20260904073558 73 0 0.0 0.0 0.00 0.00 0.00 87 1015.9
20260904073106 73 0 0.0 0.0 0.00 0.00 0.00 86 1016.0
20260904072557 73 0 0.0 0.0 0.00 0.00 0.00 86 1016.0
20260904072058 73 0 0.0 0.0 0.00 0.00 0.00 86 1015.9
20260904071600 73 0 0.0 0.0 0.00 0.00 0.00 86 1016.0
20260904071058 74 0 0.0 0.0 0.00 0.00 0.00 86 1016.0
20260904070559 74 0 0.0 1.0 0.00 0.00 0.00 86 1016.1
20260904070106 74 0 0.0 1.0 0.00 0.00 0.00 86 1016.0
20260904065558 74 0 0.0 0.0 0.00 0.00 0.00 86 1016.0
20260904065058 74 0 0.0 0.0 0.00 0.00 0.00 85 1016.1
20260904064605 74 0 0.0 0.0 0.00 0.00 0.00 85 1016.3
20260904064058 74 0 0.0 0.0 0.00 0.00 0.00 85 1016.3
20260904063558 74 0 0.0 0.0 0.00 0.00 0.00 85 1016.4
20260904063123 74 0 0.0 0.0 0.00 0.00 0.00 85 1016.3
20260904062600 74 0 0.0 0.0 0.00 0.00 0.00 85 1016.3
20260904062058 74 0 0.0 0.0 0.00 0.00 0.00 85 1016.4
20260904061600 74 0 0.0 0.0 0.00 0.00 0.00 85 1016.3
20260904061101 74 0 0.0 0.0 0.00 0.00 0.00 85 1016.4
20260904060558 74 0 0.0 0.0 0.00 0.00 0.00 85 1016.3
20260904060104 74 0 0.0 0.0 0.00 0.00 0.00 85 1016.5
20260904055558 74 0 0.0 0.0 0.00 0.00 0.00 85 1016.6
20260904055058 74 0 0.0 0.0 0.00 0.00 0.00 84 1016.7
20260904054610 74 0 0.0 0.0 0.00 0.00 0.00 84 1016.6
20260904054057 75 0 0.0 0.0 0.00 0.00 0.00 84 1016.6
20260904053559 75 0 0.0 0.0 0.00 0.00 0.00 84 1016.6
20260904053101 75 0 0.0 0.0 0.00 0.00 0.00 84 1016.6
20260904052558 75 0 0.0 0.0 0.00 0.00 0.00 84 1016.6
20260904052059 75 0 0.0 0.0 0.00 0.00 0.00 84 1016.6
20260904051610 75 0 0.0 0.0 0.00 0.00 0.00 84 1016.6
20260904051058 75 0 0.0 0.0 0.00 0.00 0.00 84 1016.7
20260904050558 75 0 0.0 0.0 0.00 0.00 0.00 84 1016.7
20260904050106 75 0 0.0 3.0 0.00 0.00 0.00 84 1016.7
20260904045558 75 0 0.0 3.0 0.00 0.00 0.00 84 1016.7
20260904045058 75 0 0.0 2.0 0.00 0.00 0.00 84 1016.7
20260904044606 74 0 0.0 0.0 0.00 0.00 0.00 84 1016.6
20260904044101 74 0 0.0 0.0 0.00 0.00 0.00 84 1016.6
20260904043600 75 0 0.0 0.0 0.00 0.00 0.00 84 1016.6
20260904043109 75 0 0.0 0.0 0.00 0.00 0.00 83 1016.6
20260904042558 75 0 0.0 0.0 0.00 0.00 0.00 84 1016.5
20260904042059 75 0 0.0 0.0 0.00 0.00 0.00 84 1016.6
20260904041603 75 0 0.0 0.0 0.00 0.00 0.00 83 1016.5
20260904041058 75 0 0.0 0.0 0.00 0.00 0.00 83 1016.6
20260904040602 75 0 0.0 0.0 0.00 0.00 0.00 83 1016.4
20260904040107 75 0 0.0 0.0 0.00 0.00 0.00 83 1016.5
20260904035559 75 0 0.0 0.0 0.00 0.00 0.00 83 1016.4
20260904035100 75 0 0.0 0.0 0.00 0.00 0.00 83 1016.2
20260904034603 75 0 0.0 0.0 0.00 0.00 0.00 83 1016.2
20260904034058 75 0 0.0 0.0 0.00 0.00 0.00 83 1016.1
20260904033558 75 0 0.0 0.0 0.00 0.00 0.00 83 1016.2
20260904033105 75 0 0.0 0.0 0.00 0.00 0.00 83 1016.3
20260904032557 75 0 0.0 0.0 0.00 0.00 0.00 83 1016.3
20260904032057 75 0 0.0 0.0 0.00 0.00 0.00 83 1016.6
20260904031608 75 0 0.0 0.0 0.00 0.00 0.00 83 1016.7
20260904031058 75 0 0.0 0.0 0.00 0.00 0.00 83 1016.5
20260904030558 75 0 0.0 0.0 0.00 0.00 0.00 83 1016.6
20260904030107 75 0 0.0 0.0 0.00 0.00 0.00 83 1016.6
20260904025603 75 0 0.0 0.0 0.00 0.00 0.00 83 1016.5
20260904025058 75 0 0.0 0.0 0.00 0.00 0.00 83 1016.6
20260904024606 76 0 0.0 0.0 0.00 0.00 0.00 82 1016.6
20260904024100 76 0 0.0 0.0 0.00 0.00 0.00 82 1016.6
20260904023558 76 0 0.0 0.0 0.00 0.00 0.00 82 1016.7
20260904023105 76 0 0.0 3.0 0.00 0.00 0.00 82 1016.7
20260904022558 76 0 0.0 4.0 0.00 0.00 0.00 81 1016.8
20260904022101 77 351 1.0 5.0 0.00 0.00 0.00 80 1016.8
20260904021609 77 0 2.0 5.0 0.00 0.00 0.00 80 1016.8
20260904021100 77 0 1.0 9.0 0.00 0.00 0.00 79 1016.6
20260904020559 78 0 1.0 11.0 0.00 0.00 0.00 78 1016.6
20260904020118 79 53 3.0 11.0 0.00 0.00 0.00 76 1016.5
20260904015600 80 42 5.0 14.0 0.00 0.00 0.00 75 1016.4
20260904015058 81 51 6.0 14.0 0.00 0.00 0.00 74 1016.5
20260904014627 82 44 5.0 11.0 0.00 0.00 0.00 72 1016.4
20260904014058 83 275 1.0 7.0 0.00 0.00 0.00 71 1016.0
20260904013558 83 252 2.0 7.0 0.00 0.00 0.00 71 1015.9
20260904013104 83 262 2.0 8.0 0.00 0.00 0.00 70 1015.8
20260904012600 83 244 3.0 8.0 0.00 0.00 0.00 70 1015.9
20260904012101 83 273 2.0 8.0 0.00 0.00 0.00 70 1016.0
20260904011603 83 276 2.0 8.0 0.00 0.00 0.00 70 1016.0
20260904011102 83 261 3.0 8.0 0.00 0.00 0.00 71 1015.9
20260904010600 83 236 3.0 6.0 0.00 0.00 0.00 71 1015.9
20260904010104 83 242 1.0 5.0 0.00 0.00 0.00 71 1015.9
20260904005558 83 0 1.0 7.0 0.00 0.00 0.00 71 1016.1
20260904005058 83 229 3.0 7.0 0.00 0.00 0.00 71 1016.0
20260904004608 84 246 1.0 5.0 0.00 0.00 0.00 71 1016.2
20260904004058 84 0 0.0 4.0 0.00 0.00 0.00 70 1016.1
20260904003601 84 0 1.0 4.0 0.00 0.00 0.00 69 1016.1
20260904003104 84 0 0.0 5.0 0.00 0.00 0.00 69 1016.0
20260904002558 85 0 1.0 5.0 0.00 0.00 0.00 68 1015.8
20260904002059 85 246 1.0 6.0 0.00 0.00 0.00 68 1015.7
20260904001600 85 0 1.0 6.0 0.00 0.00 0.00 67 1015.8
20260904001102 86 0 1.0 5.0 0.00 0.00 0.00 67 1015.8
20260904000558 86 268 1.0 4.0 0.00 0.00 0.00 66 1015.9
20260904000123 86 268 2.0 6.0 0.00 0.00 0.00 65 1016.0
20260903235601 87 0 2.0 6.0 0.00 0.00 0.00 64 1016.0
20260903235057 87 273 2.0 4.0 0.00 0.00 0.00 64 1015.9
20260903234603 87 278 1.0 8.0 0.00 0.00 0.00 64 1016.0
20260903234058 87 271 2.0 8.0 0.00 0.00 0.00 63 1015.9
20260903233600 88 278 3.0 8.0 0.00 0.00 0.00 62 1015.8
20260903233105 88 279 3.0 7.0 0.00 0.00 0.00 62 1015.8
20260903232558 89 257 1.0 6.0 0.00 0.00 0.00 62 1015.7
20260903232058 89 271 2.0 8.0 0.00 0.00 0.00 61 1015.7
20260903231601 89 281 2.0 8.0 0.00 0.00 0.00 60 1015.6
20260903231101 90 267 3.0 8.0 0.00 0.00 0.00 59 1015.8
20260903230558 90 275 4.0 8.0 0.00 0.00 0.00 59 1015.7
20260903230107 90 273 3.0 7.0 0.00 0.00 0.00 59 1015.8
20260903225557 91 252 2.0 7.0 0.00 0.00 0.00 58 1015.8
20260903225057 91 257 3.0 10.0 0.00 0.00 0.00 58 1015.7
20260903224624 91 286 3.0 10.0 0.00 0.00 0.00 57 1015.7
20260903224058 91 274 3.0 10.0 0.00 0.00 0.00 56 1015.8
20260903223558 91 281 4.0 12.0 0.00 0.00 0.00 57 1015.8
20260903223104 91 255 3.0 12.0 0.00 0.00 0.00 57 1015.8
20260903222558 92 265 4.0 12.0 0.00 0.00 0.00 56 1015.8
20260903222058 92 273 7.0 12.0 0.00 0.00 0.00 55 1015.6
20260903221605 93 283 5.0 9.0 0.00 0.00 0.00 55 1015.7
20260903221057 93 273 3.0 9.0 0.00 0.00 0.00 53 1015.7
20260903220558 93 263 3.0 11.0 0.00 0.00 0.00 54 1015.5
20260903220104 93 267 5.0 13.0 0.00 0.00 0.00 53 1015.5
20260903215557 93 261 7.0 13.0 0.00 0.00 0.00 53 1015.5
20260903215058 93 275 5.0 13.0 0.00 0.00 0.00 52 1015.4
20260903214613 93 262 6.0 12.0 0.00 0.00 0.00 52 1015.4
20260903214058 94 273 7.0 13.0 0.00 0.00 0.00 52 1015.1
20260903213558 94 210 3.0 13.0 0.00 0.00 0.00 53 1014.9
20260903213113 94 281 7.0 13.0 0.00 0.00 0.00 51 1014.9
20260903212558 94 256 6.0 12.0 0.00 0.00 0.00 52 1014.7
20260903212058 94 275 5.0 14.0 0.00 0.00 0.00 53 1014.7
20260903211609 93 285 6.0 15.0 0.00 0.00 0.00 52 1014.7
20260903211100 93 240 8.0 15.0 0.00 0.00 0.00 50 1014.7
20260903210558 94 261 7.0 14.0 0.00 0.00 0.00 51 1014.5
20260903210127 94 281 6.0 11.0 0.00 0.00 0.00 54 1014.5
20260903205558 94 258 6.0 11.0 0.00 0.00 0.00 53 1014.4
20260903205057 94 276 6.0 11.0 0.00 0.00 0.00 53 1014.4
20260903204603 94 277 6.0 11.0 0.00 0.00 0.00 54 1014.4
20260903204058 94 261 6.0 13.0 0.00 0.00 0.00 54 1014.4
20260903203557 93 273 5.0 17.0 0.00 0.00 0.00 53 1014.4
20260903203114 94 271 7.0 17.0 0.00 0.00 0.00 53 1014.6
20260903202601 94 271 7.0 17.0 0.00 0.00 0.00 52 1014.7
20260903202100 95 240 6.0 12.0 0.00 0.00 0.00 51 1014.8
20260903201606 95 250 6.0 11.0 0.00 0.00 0.00 53 1014.9
20260903201100 95 289 6.0 11.0 0.00 0.00 0.00 52 1015.0
20260903200600 95 263 5.0 12.0 0.00 0.00 0.00 53 1015.2
20260903200111 95 292 5.0 12.0 0.00 0.00 0.00 54 1015.4
20260903195559 95 275 7.0 14.0 0.00 0.00 0.00 51 1015.6
20260903195057 95 291 4.0 14.0 0.00 0.00 0.00 52 1015.6
20260903194603 95 272 8.0 13.0 0.00 0.00 0.00 52 1015.9
20260903194100 95 293 4.0 16.0 0.00 0.00 0.00 52 1015.9
20260903193556 95 265 8.0 16.0 0.00 0.00 0.00 53 1016.0
20260903193102 95 265 7.0 13.0 0.00 0.00 0.00 52 1016.0
20260903192557 95 296 7.0 13.0 0.00 0.00 0.00 51 1016.1
20260903192100 95 269 6.0 15.0 0.00 0.00 0.00 52 1016.2
20260903191602 95 218 5.0 15.0 0.00 0.00 0.00 52 1016.2
20260903191100 95 269 8.0 15.0 0.00 0.00 0.00 51 1016.3
20260903190600 95 233 4.0 13.0 0.00 0.00 0.00 51 1016.2
20260903190104 95 248 5.0 13.0 0.00 0.00 0.00 52 1016.2
20260903185600 95 256 6.0 13.0 0.00 0.00 0.00 54 1016.2
20260903185100 95 271 6.0 13.0 0.00 0.00 0.00 52 1016.3
20260903184601 95 238 7.0 13.0 0.00 0.00 0.00 51 1016.4
20260903184101 95 241 6.0 13.0 0.00 0.00 0.00 52 1016.4
20260903183602 95 248 6.0 13.0 0.00 0.00 0.00 52 1016.5
20260903183104 95 254 4.0 13.0 0.00 0.00 0.00 51 1016.5
20260903182602 95 277 7.0 13.0 0.00 0.00 0.00 48 1016.6
20260903182056 95 242 6.0 17.0 0.00 0.00 0.00 49 1016.5
20260903181603 95 273 6.0 17.0 0.00 0.00 0.00 51 1016.7
20260903181100 95 265 6.0 13.0 0.00 0.00 0.00 53 1016.6
20260903180600 95 283 7.0 12.0 0.00 0.00 0.00 52 1016.7
20260903180104 96 302 6.0 11.0 0.00 0.00 0.00 50 1016.8
20260903175557 95 277 4.0 11.0 0.00 0.00 0.00 53 1016.7
20260903175100 95 289 6.0 11.0 0.00 0.00 0.00 51 1016.9
20260903174603 95 277 4.0 13.0 0.00 0.00 0.00 51 1016.9
20260903174059 95 240 6.0 13.0 0.00 0.00 0.00 53 1017.0
20260903173600 94 290 5.0 13.0 0.00 0.00 0.00 54 1017.0
20260903173106 94 0 7.0 13.0 0.00 0.00 0.00 55 1017.1
20260903172600 94 279 6.0 13.0 0.00 0.00 0.00 52 1017.1
20260903172100 94 302 6.0 13.0 0.00 0.00 0.00 56 1017.0
20260903171617 94 294 6.0 16.0 0.00 0.00 0.00 54 1017.1
20260903171056 94 256 7.0 16.0 0.00 0.00 0.00 57 1017.1
20260903170557 94 306 3.0 11.0 0.00 0.00 0.00 57 1017.2
20260903165556 95 207 5.0 12.0 0.00 0.00 0.00 53 1017.0
20260903165100 95 273 4.0 9.0 0.00 0.00 0.00 55 1017.1